Theta_e
316 314 318 319 321 322 324 329 331 334 331 324 323 323 323 325 328 329 330 330 332 333 330 334 336 333 336 338 341 345 343 345 349 345 344 337 332 335 333 333 334 329 333 339 340 340 338 337 335 333 330 327 324 323 326 330 332 331 332 332 334 335 335 332 331 332 331 332 333 333 335 335 335 335 335 334 332 331 329 327 327 326 324 322 318 317 317 322 327 328 330 330 330 330 328 325 323
316 317 320 319 322 320 325 332 333 334 327 319 323 325 322 323 326 331 336 335 335 335 334 338 340 340 341 339 339 341 338 337 337 335 334 332 334 335 332 334 331 330 337 339 340 339 337 337 333 330 328 327 323 321 325 330 332 332 332 332 333 335 334 332 332 333 331 332 334 334 334 334 335 335 335 333 330 330 329 328 328 327 327 325 322 320 318 322 327 328 329 329 329 329 328 326 324
316 319 320 320 322 322 331 332 329 331 324 321 329 329 323 325 331 336 340 336 333 335 337 336 342 343 341 341 338 338 337 335 334 332 331 333 334 333 333 332 331 335 338 339 340 338 337 336 332 331 330 328 325 323 328 331 330 330 331 332 333 333 333 333 333 333 332 333 334 335 334 334 336 335 335 333 331 330 329 329 329 329 328 327 324 322 320 322 326 327 329 329 328 328 327 326 324
318 320 321 322 323 330 343 336 333 333 323 325 328 328 333 334 333 335 336 333 334 338 337 334 343 337 335 343 338 338 340 336 334 333 334 333 333 333 332 332 334 338 338 340 339 338 338 335 330 332 331 328 327 324 329 331 330 330 331 331 332 333 333 333 333 333 334 333 333 334 334 335 336 336 336 335 333 330 328 328 330 330 329 327 325 323 320 322 325 326 328 327 327 327 326 326 324
319 321 320 322 326 331 337 329 331 329 322 328 325 328 341 340 333 331 331 330 332 335 332 336 344 335 333 340 338 340 339 336 333 331 334 333 333 332 331 334 337 338 339 339 338 338 336 332 330 332 330 329 329 325 328 332 330 331 331 331 332 333 333 332 333 333 331 332 332 334 334 335 336 336 336 334 331 328 327 327 329 329 328 327 325 323 320 320 323 325 326 326 327 326 326 326 323
319 321 320 321 321 322 329 322 324 326 327 334 326 333 343 337 332 331 329 327 329 329 328 335 343 341 341 339 336 337 335 336 334 332 333 333 334 332 332 335 337 338 338 338 338 336 333 330 330 332 329 330 332 328 329 331 330 330 331 332 331 331 331 332 333 330 329 331 332 333 334 334 335 336 334 332 330 327 326 326 328 328 327 327 325 323 321 319 319 321 324 325 326 326 325 325 323
318 320 324 327 322 324 335 327 329 333 325 326 326 334 339 334 332 332 329 326 329 329 331 337 340 343 343 337 335 334 333 335 333 333 333 334 334 331 332 335 336 339 337 338 337 333 331 330 330 332 329 330 332 330 331 331 330 330 331 332 331 330 330 332 332 330 332 333 332 333 334 334 334 334 333 332 330 328 326 326 328 327 326 326 325 324 323 322 320 321 324 325 325 325 325 323 322
319 322 327 336 333 333 340 330 335 336 319 320 326 331 333 333 333 333 331 329 329 330 337 341 338 342 339 335 339 336 333 334 333 334 333 334 334 330 332 335 336 338 338 338 335 332 330 330 330 331 330 329 330 331 331 331 330 330 330 331 330 330 330 331 332 332 333 334 334 335 334 334 334 334 333 331 331 328 326 327 328 327 325 325 323 323 323 322 322 323 324 325 325 325 325 322 321
319 322 327 332 331 333 342 336 330 328 321 323 326 330 331 331 332 331 331 329 328 333 340 339 335 335 337 339 344 337 332 334 334 334 333 334 334 329 330 334 336 337 339 338 334 330 330 330 330 331 332 330 329 331 331 330 330 329 329 329 330 330 330 330 332 333 333 334 335 335 335 334 334 334 332 332 331 329 327 328 329 327 325 324 322 321 322 322 323 323 322 323 324 325 324 322 321
320 323 328 333 333 329 333 337 329 323 322 324 325 329 331 331 331 328 329 328 326 334 337 335 336 335 338 346 345 335 333 334 332 334 335 334 333 330 330 332 336 337 338 338 334 331 332 332 331 333 333 330 330 331 330 330 329 329 328 329 331 330 330 331 332 333 333 333 334 334 334 334 333 333 332 331 331 329 327 327 328 327 323 322 320 319 321 321 320 318 317 319 321 322 322 321 321
327 329 335 337 335 330 328 336 337 332 323 322 326 327 330 329 327 326 327 326 325 331 334 333 340 344 345 348 342 334 332 332 333 334 334 334 332 331 331 331 335 336 338 338 334 332 333 333 332 334 332 330 331 331 331 330 328 329 330 330 331 331 330 331 332 332 332 332 333 333 333 334 333 333 332 330 329 327 326 326 327 326 322 321 319 317 318 317 317 316 316 316 318 321 321 322 322
329 336 347 341 333 331 331 336 339 340 331 326 327 325 328 326 324 326 327 327 326 332 338 333 337 347 352 352 344 334 331 332 333 333 334 335 332 331 331 332 335 335 337 337 335 333 333 333 332 331 328 328 331 332 330 329 328 329 331 330 330 331 330 330 332 331 331 331 331 333 333 333 333 333 332 330 328 326 326 326 326 325 321 321 318 315 316 316 316 316 316 317 319 321 322 322 322
334 338 345 334 331 333 332 333 331 333 331 331 328 321 323 325 325 327 330 329 328 334 334 328 336 349 354 350 342 333 331 332 332 334 334 334 332 331 331 333 335 335 336 336 335 333 333 332 331 330 326 325 329 331 330 329 328 328 329 329 329 330 328 327 330 330 331 330 329 331 333 333 333 332 331 329 328 326 325 325 327 324 320 319 316 315 315 315 315 315 315 317 320 321 322 323 322
335 340 341 328 330 337 334 330 324 323 327 332 327 320 321 324 326 327 329 328 330 334 324 323 335 347 344 341 347 343 335 331 331 334 334 334 333 332 332 332 334 335 336 335 335 333 332 332 331 329 326 324 326 328 328 327 328 328 328 329 329 328 327 327 329 330 331 331 329 331 332 332 332 332 331 328 328 327 325 325 326 323 318 317 317 316 315 314 314 314 315 317 320 321 321 322 322
329 340 343 333 330 332 332 328 326 325 330 330 322 321 324 321 324 328 327 327 329 325 321 326 331 331 332 339 350 346 335 330 331 334 334 334 333 333 332 332 333 335 335 334 334 333 332 331 330 329 326 325 324 324 325 326 327 328 328 329 329 328 327 327 329 331 331 331 330 331 331 331 331 331 330 328 328 328 326 324 323 321 320 318 316 315 315 315 315 315 316 317 319 320 321 321 321
332 340 340 332 328 327 328 328 327 324 329 328 318 320 326 319 321 326 322 323 326 321 326 333 326 324 332 339 337 333 333 330 330 334 334 334 334 334 333 333 335 335 334 333 333 332 331 330 329 328 327 326 325 324 324 325 326 328 329 329 329 328 326 326 329 331 330 330 331 331 331 331 330 330 329 328 327 328 327 325 321 320 320 317 315 315 316 317 317 317 317 318 320 320 321 321 321
333 340 340 334 331 329 330 330 326 324 329 326 319 320 325 322 318 319 318 323 330 328 333 334 326 329 337 337 331 329 333 330 330 334 334 334 334 333 333 333 334 334 334 333 332 331 330 330 329 328 327 327 326 326 324 324 326 329 330 329 329 329 326 326 328 330 329 328 330 331 331 330 330 329 329 328 327 327 326 325 322 320 319 315 314 315 316 317 318 318 318 319 320 320 321 321 322
334 339 339 336 336 334 334 333 327 325 328 323 321 323 325 325 320 318 320 329 334 331 334 336 332 332 332 332 331 332 332 329 329 332 332 333 333 333 333 332 332 333 333 333 332 331 330 329 328 327 327 327 327 326 325 324 326 329 330 330 330 329 327 326 327 329 329 328 328 330 330 330 330 329 328 327 326 326 325 325 323 320 317 314 314 316 316 317 318 318 319 319 320 320 320 321 322
338 343 339 340 340 334 333 334 327 324 326 325 322 322 323 324 323 320 322 330 332 331 333 336 339 336 333 331 331 332 330 329 328 329 331 331 332 332 332 332 332 332 332 333 332 330 330 329 328 328 327 327 328 327 325 324 325 329 330 330 330 330 328 327 327 329 329 328 327 328 328 328 329 329 328 327 326 326 325 324 324 321 318 315 315 316 316 317 317 318 319 319 319 320 320 321 322
333 338 340 343 339 332 331 330 328 325 324 325 322 320 322 322 322 320 325 332 331 333 331 332 340 342 342 334 329 331 329 329 328 328 329 330 331 331 331 332 331 331 332 332 331 331 330 329 328 328 327 326 328 327 325 325 326 328 330 330 330 330 329 328 327 327 328 328 327 327 327 327 327 328 328 328 327 326 325 324 323 321 319 316 316 316 316 317 317 318 319 319 319 320 321 321 321
324 330 339 342 334 332 333 326 324 324 320 323 324 321 321 320 320 320 327 332 331 332 330 330 337 344 347 335 328 331 329 328 328 328 328 328 330 330 330 330 330 330 330 331 331 331 330 330 329 328 327 326 327 327 324 325 327 328 329 330 330 329 328 327 326 326 326 326 326 325 326 326 326 326 327 327 327 326 325 324 321 320 318 316 316 316 316 317 317 318 318 319 320 320 321 321 322
323 325 332 335 330 331 332 324 320 321 317 320 324 322 322 320 319 324 329 328 329 329 327 329 331 340 346 336 330 330 328 328 327 328 327 327 329 329 330 329 329 329 329 330 329 330 330 330 329 328 326 325 326 327 324 325 327 327 328 329 329 328 327 326 326 326 326 325 325 325 326 326 326 326 326 327 327 326 325 323 319 319 318 316 316 317 316 317 317 317 318 319 320 320 321 322 322
327 327 328 331 330 328 326 321 318 319 319 322 323 320 321 320 319 324 329 325 326 326 323 325 326 331 336 333 330 331 329 328 327 328 328 328 328 328 329 329 329 329 328 329 328 330 330 329 329 327 325 324 325 326 324 324 327 327 326 328 328 327 327 326 326 326 326 325 325 326 326 326 326 326 326 326 326 325 325 322 319 319 319 317 317 317 317 317 317 317 318 319 320 320 321 321 321
327 330 330 328 325 325 322 319 318 318 321 321 319 318 320 323 321 322 326 326 325 320 314 315 321 325 329 330 331 330 330 328 328 329 329 329 329 329 329 329 329 329 328 328 328 329 329 329 328 327 324 321 323 325 324 324 327 328 326 326 327 328 328 326 325 325 326 326 325 326 325 325 325 325 325 325 325 325 324 322 321 319 319 318 317 317 317 317 317 318 319 319 320 320 320 320 321
326 330 331 326 323 327 324 320 319 318 319 317 316 318 321 321 319 320 324 325 322 320 320 323 326 329 330 332 332 330 330 329 329 329 329 330 329 329 329 329 329 328 328 329 329 329 329 329 328 327 323 317 318 321 322 324 326 327 327 325 325 327 329 326 324 324 325 325 325 325 325 324 324 323 324 324 324 324 323 323 322 321 319 318 318 317 317 317 318 318 319 319 319 319 319 319 321
328 327 330 327 325 327 322 320 320 319 317 315 316 319 319 315 314 319 323 322 321 325 339 340 334 335 333 333 332 330 330 329 329 330 329 330 329 329 329 329 329 328 329 329 329 329 329 329 328 328 322 316 316 318 321 323 325 327 327 325 323 325 328 327 324 324 324 324 325 325 324 324 323 322 322 322 322 322 322 322 321 321 320 319 318 317 317 317 318 318 318 318 318 318 318 319 321
330 327 330 330 328 324 318 320 320 317 316 315 318 319 318 313 312 319 320 321 323 330 346 342 336 340 334 332 332 329 329 329 330 330 329 329 329 329 329 328 328 328 329 328 329 329 329 329 329 328 323 316 317 319 320 322 325 327 327 327 324 323 325 326 325 324 324 324 324 324 324 324 322 321 321 321 321 321 321 321 320 320 319 318 318 318 317 318 318 318 318 318 317 317 318 319 321
328 327 329 330 329 325 317 318 317 315 317 316 317 318 317 315 314 318 319 321 323 329 348 344 339 339 332 332 332 328 329 329 330 330 329 329 329 330 329 329 329 329 329 329 329 329 330 330 329 329 324 318 319 322 320 320 323 326 327 328 326 325 324 324 325 325 324 324 323 323 323 324 322 320 320 320 320 320 320 319 320 319 318 318 318 317 317 317 317 317 317 318 318 318 318 319 321
327 327 330 329 327 328 323 319 317 317 318 316 317 320 319 317 316 316 319 323 321 325 343 345 339 335 332 332 331 330 329 329 330 329 329 330 330 331 330 330 330 329 329 329 330 330 330 330 329 329 326 322 322 323 321 319 321 324 326 327 327 326 326 325 325 325 325 324 324 323 322 323 322 320 320 321 320 320 320 320 320 319 318 317 317 317 317 317 317 317 318 319 320 319 319 319 321
328 327 332 333 328 331 329 319 316 317 317 317 320 325 325 322 319 318 319 323 322 323 333 340 338 334 332 331 331 331 329 328 329 329 330 330 330 330 330 331 330 330 330 329 330 330 330 330 330 329 328 325 324 324 323 321 321 322 325 326 327 327 327 327 326 326 326 325 326 325 323 322 322 321 321 322 322 321 322 322 322 321 319 319 318 318 317 317 318 319 320 321 321 321 320 319 321
331 328 331 334 336 341 335 319 316 318 315 316 322 326 327 325 323 323 321 321 322 322 325 330 334 333 332 331 331 331 330 328 328 329 330 330 330 330 330 331 330 330 330 330 330 330 330 330 330 329 328 327 326 326 325 324 324 324 324 325 326 327 327 328 328 328 328 327 327 327 324 321 321 321 321 323 324 323 323 323 323 322 322 323 323 321 320 319 320 321 322 323 323 322 321 320 321
335 331 333 334 336 344 340 321 316 321 317 315 320 325 326 324 326 330 324 318 319 320 321 322 327 330 331 331 330 331 330 328 328 329 330 330 330 330 330 330 330 331 330 330 330 330 330 330 329 329 328 327 326 326 326 326 326 326 326 325 325 326 326 327 328 329 329 329 329 328 326 322 319 320 321 322 323 324 324 324 323 323 324 325 326 325 323 322 322 322 323 324 324 323 322 321 321
335 333 336 337 334 338 339 325 317 320 319 315 319 325 329 328 327 328 322 317 316 317 318 317 319 324 327 330 330 330 331 329 328 328 329 330 330 330 330 330 330 330 330 330 330 330 330 329 329 329 328 327 326 326 327 327 327 327 327 326 325 325 326 326 326 327 328 329 329 329 327 323 321 319 320 321 322 323 324 325 324 324 325 326 326 326 326 324 323 323 323 323 324 324 323 322 321
335 334 336 336 334 335 337 333 323 318 318 317 318 322 326 329 327 324 320 317 316 316 316 316 315 317 320 325 328 329 330 331 330 328 328 329 330 330 331 330 330 330 331 331 330 330 330 330 329 329 328 328 327 327 327 327 327 328 328 328 327 326 326 326 326 327 327 328 329 329 327 324 323 322 320 320 321 323 323 325 325 325 326 326 327 327 326 326 325 325 324 324 324 325 324 324 322
336 334 334 334 333 334 335 335 328 317 317 320 319 319 321 324 325 324 322 317 318 319 316 315 314 314 315 318 322 325 327 329 328 327 328 328 329 330 330 331 330 330 331 330 330 330 330 330 330 329 329 328 328 327 327 327 327 328 328 328 328 327 327 327 328 328 328 328 328 328 326 323 324 324 322 320 320 321 323 324 325 326 326 326 327 327 327 326 326 326 326 325 325 325 325 325 324
335 334 335 335 333 334 333 333 328 317 316 320 320 320 319 320 321 321 320 318 319 320 317 315 315 313 313 313 315 318 322 325 324 325 326 327 328 329 330 330 330 330 330 330 330 330 330 330 329 329 329 329 328 327 327 327 327 328 328 328 328 328 328 328 328 328 328 328 328 327 326 324 323 324 325 323 320 320 321 323 324 325 325 326 326 326 327 326 326 326 326 326 326 326 326 325 325
335 335 335 336 336 335 332 332 329 319 317 321 319 319 320 320 320 319 318 318 319 320 317 316 315 314 314 313 313 313 316 318 318 320 323 325 326 328 329 329 330 330 330 330 330 330 330 330 329 329 329 329 328 327 327 327 327 327 327 327 327 327 328 328 328 328 328 328 328 328 327 326 324 324 325 325 323 321 321 322 323 324 325 325 325 325 326 326 326 326 326 326 327 326 326 326 325
336 335 335 336 336 335 334 332 329 320 317 323 322 319 319 318 318 318 316 317 319 319 318 317 316 316 315 314 314 313 312 313 314 315 316 319 323 325 327 328 329 329 329 330 330 330 330 330 329 329 329 328 328 328 327 327 327 327 327 327 327 327 327 327 328 328 328 328 328 328 328 326 326 325 325 325 325 324 323 322 322 323 324 325 325 325 325 325 326 326 326 326 327 326 326 326 325
336 335 335 337 335 334 335 331 328 321 320 329 329 323 322 320 318 318 317 317 318 317 318 318 317 317 316 315 314 313 313 313 313 313 312 313 317 319 323 326 327 329 329 329 329 330 330 329 329 329 329 328 328 328 328 328 328 327 327 327 327 327 327 327 327 327 327 328 327 328 327 327 326 326 326 326 326 326 325 324 324 324 324 325 325 326 325 325 326 326 326 326 326 326 326 325 325
335 335 335 337 336 335 337 332 326 323 321 327 329 326 325 324 323 322 319 318 319 319 318 318 318 318 318 317 316 315 314 314 314 313 311 310 312 315 318 322 325 327 328 329 329 329 329 329 329 329 329 328 328 328 328 328 328 327 327 327 327 327 327 327 327 326 326 326 326 327 326 326 326 326 326 326 326 325 325 325 325 324 324 325 326 326 326 326 326 326 326 326 325 325 325 325 325
335 335 333 337 337 335 337 333 325 322 322 321 324 329 330 328 328 327 324 322 320 320 319 319 318 317 318 318 319 317 316 315 315 314 313 310 309 311 314 317 321 324 326 328 328 329 329 329 329 329 329 329 328 328 328 328 327 327 327 326 326 326 326 326 325 326 326 325 326 326 325 325 325 325 325 325 325 325 325 325 325 325 324 325 325 326 326 326 326 326 326 326 325 325 324 324 324
335 334 333 335 337 336 333 330 326 328 331 325 325 336 339 336 336 332 328 328 325 322 321 321 320 318 318 318 318 318 317 316 315 315 315 311 309 309 312 314 318 322 324 325 327 328 329 329 329 329 329 329 329 328 328 328 327 327 326 326 326 325 325 325 325 325 325 326 326 326 326 325 325 325 325 324 325 325 326 326 326 325 325 325 325 325 326 326 326 326 326 326 325 325 324 324 324
335 335 334 335 336 337 333 328 331 336 336 329 325 334 342 339 338 337 332 332 330 326 324 324 321 320 320 318 317 318 318 317 316 315 315 313 310 309 309 312 315 318 320 322 325 327 328 329 329 329 329 329 329 328 328 327 327 326 327 327 327 326 325 326 326 326 326 326 327 326 326 326 325 325 325 325 325 325 326 326 326 325 325 325 325 325 325 325 325 325 326 325 325 325 324 323 323
335 334 334 335 336 338 333 328 334 335 332 328 323 327 336 335 335 336 333 333 333 329 327 325 321 320 320 319 318 318 318 318 317 317 316 314 311 309 310 311 313 315 317 320 323 325 327 328 328 329 329 329 329 329 328 328 327 327 327 327 327 327 327 327 327 327 327 327 326 327 327 326 326 326 325 325 325 325 325 325 325 326 326 325 325 325 325 324 325 325 325 325 324 324 324 323 323
333 331 331 332 333 335 332 328 331 331 331 333 326 323 332 334 331 330 328 331 334 331 329 327 323 322 321 319 319 318 318 318 318 319 318 316 312 310 311 312 313 314 315 318 321 322 324 326 328 328 329 329 329 329 328 328 328 327 327 326 326 327 327 327 327 327 327 327 326 327 326 326 326 326 326 325 325 325 325 325 325 326 326 326 325 325 325 324 324 324 324 324 324 323 323 323 323
330 328 328 328 329 331 332 333 333 331 332 336 330 325 334 338 333 329 326 329 332 330 328 328 327 327 324 321 319 318 318 318 318 318 318 316 314 313 313 312 313 314 315 316 318 321 323 326 328 328 329 329 329 329 329 328 328 327 327 327 327 327 327 327 326 326 327 326 326 327 326 326 326 326 326 325 325 325 325 325 326 326 326 326 325 325 325 324 324 324 324 324 323 323 323 323 322
328 328 330 330 331 332 334 334 334 335 335 336 332 326 332 339 336 332 329 328 330 329 329 329 330 330 328 324 322 319 318 318 317 318 317 314 312 313 314 313 313 314 314 315 318 320 323 326 327 328 329 329 329 329 329 328 328 327 327 327 327 327 327 326 326 326 326 326 326 326 326 326 326 326 326 326 326 326 326 326 326 326 326 326 326 325 325 325 324 324 324 324 324 323 323 322 322
329 332 334 334 333 333 334 330 330 337 338 336 333 326 329 337 338 334 332 329 329 328 328 330 330 330 329 326 323 321 319 319 319 320 319 316 314 312 311 312 313 313 313 314 316 319 322 325 327 328 328 329 329 329 329 329 328 328 327 327 327 328 328 327 326 326 326 326 326 326 326 326 326 326 326 326 326 326 326 326 326 326 326 325 326 325 325 325 325 325 325 324 324 324 323 323 322
331 332 333 336 335 334 337 333 332 339 336 328 327 327 328 333 334 333 332 331 330 329 328 329 330 331 330 326 324 322 322 321 321 322 321 319 318 313 309 310 311 311 312 313 315 317 321 324 326 327 328 328 329 329 329 329 328 328 328 327 328 328 327 327 327 327 326 326 326 326 325 326 326 326 326 326 326 326 326 326 326 325 325 325 324 324 325 324 324 325 325 324 324 324 324 324 324
332 331 332 335 335 337 340 337 335 338 333 324 323 327 330 333 332 330 329 329 328 327 327 328 329 331 329 325 324 325 325 324 323 323 322 321 319 313 308 309 310 310 311 312 314 316 319 322 325 326 327 328 329 329 329 329 329 329 328 328 328 328 327 327 327 327 327 326 326 326 326 326 326 326 326 326 326 326 326 326 326 325 324 324 324 324 324 324 325 325 325 325 325 325 325 325 324
330 331 335 334 335 340 340 338 340 340 333 324 323 329 334 338 335 327 324 325 326 326 325 323 323 326 325 322 323 324 324 323 321 321 321 320 315 309 307 309 309 309 310 311 313 315 318 321 323 325 326 327 328 329 329 329 329 329 329 329 329 328 328 327 327 328 327 327 327 327 327 326 326 327 326 327 327 327 326 326 326 325 325 324 324 324 324 325 325 326 326 326 326 326 326 326 326
330 332 338 335 335 341 336 330 332 335 335 329 325 329 332 333 329 322 321 324 325 326 324 321 321 322 321 322 322 321 320 319 319 318 319 317 310 305 306 308 308 309 310 310 312 315 317 320 322 324 325 327 327 328 329 329 329 329 329 329 329 328 328 328 328 328 328 328 328 327 327 327 327 327 327 327 327 327 327 327 326 326 326 326 325 325 325 325 326 326 326 326 326 326 326 325 326
329 332 336 330 329 336 334 326 322 326 334 333 327 328 330 330 328 324 325 326 326 329 327 324 324 321 321 323 321 319 319 318 317 316 316 317 312 305 305 306 307 309 309 310 311 314 316 319 321 323 324 326 327 327 328 328 329 329 329 329 329 329 329 328 328 328 328 328 328 328 328 328 328 328 328 328 327 327 327 327 327 327 326 326 326 326 326 326 326 326 326 326 325 325 325 325 325
329 331 331 325 326 330 332 332 330 329 333 332 328 330 333 335 333 326 326 328 328 330 329 326 325 324 322 321 317 317 318 316 314 315 315 316 313 305 303 306 307 308 310 311 312 313 315 317 319 322 323 325 326 327 327 328 328 328 328 329 329 329 329 329 329 329 328 328 328 328 328 328 328 328 328 328 328 327 327 327 327 326 326 326 326 327 327 327 327 327 326 326 326 326 326 326 326
328 329 326 328 332 330 328 333 336 333 333 334 331 328 329 332 330 324 325 329 329 328 329 329 327 326 323 320 318 318 318 316 315 314 313 316 315 305 302 305 306 308 310 310 311 312 314 317 319 321 322 323 325 326 327 328 327 328 328 328 329 329 329 329 328 329 328 328 328 328 328 328 328 328 328 328 327 327 327 327 327 326 326 327 327 327 327 327 327 326 325 325 325 326 326 326 327
325 326 326 329 333 331 329 332 336 337 334 333 332 329 328 328 326 325 326 330 330 328 329 329 327 325 322 320 320 319 318 317 316 314 312 317 318 305 302 306 306 307 309 309 310 311 312 316 318 320 322 322 324 325 326 327 327 327 328 328 328 328 328 329 328 328 328 328 328 328 328 328 328 328 328 327 327 327 327 327 327 326 326 326 326 326 327 327 327 325 325 325 325 325 325 325 324
327 328 328 329 329 329 331 331 333 336 332 332 333 331 331 330 326 325 326 329 330 329 329 328 325 323 321 320 320 319 318 316 316 315 312 317 318 304 301 306 306 306 307 307 308 309 310 313 315 318 321 321 323 324 324 326 326 327 327 327 328 328 328 328 328 328 328 328 328 328 328 328 328 327 327 327 327 327 327 327 326 327 326 326 326 326 327 326 327 327 326 326 324 323 324 324 323
328 329 328 329 328 329 332 331 330 330 331 335 334 330 334 333 324 321 324 326 325 325 325 324 323 323 323 325 322 318 317 315 315 315 313 318 322 308 301 305 305 305 307 306 307 308 309 310 312 315 318 320 322 322 323 325 325 326 327 327 327 328 328 328 327 328 327 328 328 328 328 328 327 327 327 327 327 327 327 327 326 327 326 326 326 326 327 326 325 326 325 324 324 323 324 324 323
Wind_Speed
11 12 11 9 9 4 3 5 2 3 4 2 1 1 2 2 1 2 2 1 0 2 2 0 2 5 3 2 5 6 3 4 5 4 2 3 6 21 23 12 16 21 21 21 19 18 17 16 14 12 11 11 11 11 13 13 12 11 11 12 11 9 9 8 9 12 12 12 12 12 12 12 13 13 13 12 11 12 12 13 14 14 14 14 14 13 13 14 15 16 17 16 15 15 14 16 18
11 12 11 7 6 4 1 3 2 3 5 1 3 2 3 1 1 5 6 5 3 2 2 3 4 4 4 2 3 3 1 1 3 3 1 3 12 19 16 13 19 22 23 22 20 19 17 15 13 11 10 9 9 10 12 13 13 12 12 12 11 8 8 9 11 12 12 12 11 12 12 12 12 12 12 12 11 12 12 12 13 13 13 14 14 14 13 14 15 16 16 15 15 14 13 14 16
11 11 11 5 3 5 1 4 2 1 4 2 4 3 1 1 5 7 8 6 6 5 3 3 4 3 4 3 1 2 1 1 2 2 1 8 13 14 14 17 21 22 23 22 21 20 17 15 13 11 9 7 8 9 11 11 12 13 13 12 12 9 9 11 10 10 11 12 10 11 11 11 12 12 12 12 12 12 12 12 12 12 12 13 13 13 13 13 14 15 15 15 14 13 13 14 14
10 9 9 2 2 4 4 4 2 4 2 3 3 4 3 5 7 6 6 6 6 5 2 1 2 1 2 0 1 1 2 1 3 4 4 11 14 15 17 20 22 22 23 22 22 20 18 16 13 11 8 7 7 8 11 11 11 11 12 12 12 11 10 10 10 9 10 11 11 11 10 11 12 12 12 13 13 12 12 12 12 11 11 12 12 12 12 12 13 14 14 14 13 12 13 14 14
8 7 8 2 2 2 3 3 2 4 2 4 0 5 5 6 6 5 4 3 4 2 1 1 1 1 0 1 1 1 2 1 4 6 7 12 15 17 19 21 22 21 23 22 21 20 19 16 14 12 9 9 8 8 11 11 11 10 11 11 11 11 11 10 9 9 9 11 12 11 10 11 12 12 12 12 12 11 11 11 11 11 11 11 11 11 11 11 12 12 13 13 12 11 13 13 13
6 3 7 7 4 1 3 1 0 1 4 5 1 5 5 6 6 4 1 2 3 2 2 1 1 2 0 1 0 3 1 1 4 6 11 15 16 18 20 21 20 21 24 22 21 20 18 16 14 12 11 11 10 9 12 11 10 10 10 10 9 10 11 10 9 8 9 11 12 11 10 10 10 11 12 11 10 10 10 11 11 10 11 11 10 10 10 10 10 11 11 12 11 11 12 13 14
6 3 4 7 2 2 3 2 2 3 4 4 3 4 5 6 5 5 2 1 1 2 2 1 2 4 1 2 0 2 1 2 4 5 14 18 18 20 20 19 18 22 24 22 21 19 18 16 14 13 12 12 12 11 11 10 9 10 9 9 9 10 10 10 8 8 8 10 12 12 10 10 10 10 10 8 8 9 10 11 10 10 10 10 10 10 10 10 9 10 10 10 11 11 11 12 13
5 3 1 4 2 3 4 1 3 3 2 3 4 4 5 6 5 6 4 2 1 1 1 2 1 3 1 1 1 3 1 3 2 5 16 19 20 21 20 18 19 23 23 22 21 19 17 15 14 13 11 11 12 11 10 9 9 10 9 9 9 9 10 10 8 9 7 6 10 12 11 10 10 9 8 8 8 8 9 10 10 8 9 10 9 10 9 9 9 10 10 10 10 10 10 11 12
5 4 0 3 2 2 3 2 3 3 3 4 3 4 3 5 5 5 5 2 1 2 2 3 2 1 1 1 1 3 3 3 4 8 18 20 21 22 21 19 20 23 22 22 20 19 17 15 15 13 11 11 12 11 10 10 10 10 10 9 9 10 11 10 9 10 8 5 8 11 10 10 9 9 8 8 8 8 9 9 9 7 7 9 9 9 9 9 9 9 9 9 9 9 10 10 10
4 4 1 2 2 2 3 3 2 2 4 4 4 4 4 5 4 3 4 2 1 3 2 2 2 1 2 2 2 2 3 4 10 13 17 20 22 21 21 19 21 23 22 22 20 18 16 15 15 13 12 11 12 11 11 10 11 10 10 10 9 10 10 10 10 10 11 8 8 10 10 10 9 8 8 8 8 7 7 8 7 5 6 8 8 9 9 9 9 9 9 8 9 9 9 8 9
2 4 2 3 3 1 1 3 3 4 5 4 3 4 5 5 5 2 1 1 1 1 1 0 1 2 2 1 3 1 1 8 14 16 18 21 22 20 20 19 21 22 22 21 20 18 16 15 14 13 12 11 12 12 11 10 11 11 10 11 10 10 11 10 10 10 12 10 9 10 10 10 9 9 8 7 7 6 6 7 6 5 6 7 8 9 9 9 9 9 8 8 9 9 8 7 8
1 3 4 3 2 2 3 2 4 5 5 3 1 3 4 6 4 3 3 2 1 0 3 3 2 3 3 3 3 1 3 12 15 17 20 22 22 20 20 20 20 20 21 20 19 17 15 15 14 13 12 12 13 12 12 11 11 11 10 11 11 11 12 11 11 12 13 11 9 10 10 10 9 9 8 7 6 6 6 7 6 5 6 7 8 9 9 9 9 9 9 9 10 9 8 6 6
2 1 4 2 3 2 2 2 4 3 4 3 3 2 4 6 3 6 6 3 2 2 5 6 3 4 2 3 3 3 5 14 15 18 21 22 23 20 20 20 20 19 20 20 18 16 15 15 14 13 12 12 14 14 13 11 12 12 11 11 11 11 12 13 13 12 12 11 11 10 10 11 10 9 8 7 6 6 7 7 6 5 6 8 8 9 8 8 8 8 9 9 9 9 8 6 5
3 3 4 1 1 3 3 1 2 1 3 5 2 2 4 3 5 6 7 4 5 6 3 4 6 3 2 2 3 4 6 14 16 21 23 23 22 20 20 20 20 20 20 20 18 17 16 15 14 14 13 13 13 13 13 11 13 13 12 12 11 11 12 13 13 12 12 12 12 11 11 11 10 9 8 7 6 6 6 7 6 5 6 8 8 9 9 8 8 8 8 9 9 8 8 6 5
3 2 4 3 1 1 3 1 1 4 4 4 3 4 4 2 5 6 6 7 6 5 0 2 4 2 2 4 3 5 9 17 18 23 25 24 23 21 21 21 21 22 21 20 19 18 17 17 17 16 15 14 13 13 12 12 14 14 13 13 12 12 12 14 13 13 13 12 12 12 12 11 10 9 8 7 7 6 5 5 5 5 7 7 8 9 9 8 8 8 8 8 8 8 8 7 5
2 3 4 2 1 1 3 2 2 3 5 5 2 3 5 3 3 4 5 5 2 1 1 2 2 1 3 7 3 4 13 20 20 24 25 24 23 22 21 22 23 23 23 22 21 19 18 18 18 18 17 16 14 13 13 13 15 15 13 13 13 13 13 14 14 14 14 13 12 11 12 11 11 9 8 8 7 6 5 5 5 6 7 7 9 9 9 8 8 8 9 8 8 8 7 6 4
2 3 3 1 3 3 3 4 3 3 4 4 3 3 7 3 1 2 1 4 3 0 2 3 2 1 4 5 4 2 19 22 22 25 23 22 23 22 21 22 24 24 25 24 23 21 19 19 19 19 19 18 16 14 14 14 15 15 14 13 14 14 14 14 15 15 14 14 12 11 11 11 11 10 9 9 8 7 6 5 5 6 8 8 9 9 9 9 8 8 8 8 7 7 6 5 4
2 2 3 3 4 4 5 7 6 3 2 4 6 6 8 5 2 2 2 3 2 0 3 3 3 4 4 5 3 11 23 23 24 26 22 21 21 22 22 23 24 25 27 26 25 23 22 20 19 20 20 19 18 16 15 15 16 16 15 15 15 16 15 14 15 15 14 14 13 12 11 11 11 11 10 9 9 8 7 6 6 6 8 9 10 9 9 9 9 9 8 8 7 7 6 5 4
3 3 2 4 5 5 6 7 6 3 2 4 5 6 7 7 6 4 3 2 2 2 4 4 5 6 5 3 7 18 23 24 25 25 23 22 21 22 22 24 26 26 27 27 27 25 23 21 20 21 21 21 20 18 17 17 17 17 16 16 15 16 15 15 14 14 14 14 14 13 12 12 12 11 11 10 9 9 8 7 7 7 7 8 10 10 9 9 9 9 8 8 7 7 6 5 4
2 3 2 6 5 4 4 6 7 6 3 4 4 4 4 5 5 4 4 3 2 5 6 2 5 8 5 2 12 19 21 23 23 23 22 22 22 22 24 26 28 28 27 26 27 26 25 23 22 21 21 22 21 20 18 18 19 18 18 17 17 17 16 15 15 15 15 15 15 14 14 13 13 12 12 11 10 10 10 9 9 8 8 9 10 10 10 9 9 9 8 8 8 7 6 5 5
2 3 5 5 4 3 5 7 7 5 3 4 5 5 4 4 4 4 6 5 3 7 8 9 10 10 6 4 11 17 19 19 20 21 21 22 23 24 26 27 27 26 25 25 26 26 26 25 23 22 22 22 23 22 20 20 20 19 20 20 19 18 17 16 16 16 16 16 15 15 14 14 14 14 13 13 12 12 11 10 11 10 9 11 12 11 10 10 9 9 9 8 8 7 6 6 7
2 3 5 4 5 3 5 6 5 3 3 4 6 6 5 4 3 5 10 7 7 7 8 11 11 9 10 9 13 15 15 17 18 19 20 22 23 24 25 25 24 24 25 27 28 27 25 25 25 23 22 23 24 23 21 21 21 21 21 21 21 20 19 18 17 17 16 16 16 15 15 14 14 15 15 14 14 13 12 11 11 11 11 12 12 12 12 11 10 10 10 9 9 8 7 8 8
3 3 3 4 5 4 3 5 5 5 6 6 6 5 4 6 3 4 9 9 8 5 5 8 8 9 11 12 13 13 12 15 18 22 24 25 25 26 25 25 26 27 28 29 29 29 27 26 26 24 23 25 26 24 23 23 23 22 21 22 22 22 21 19 19 18 17 17 16 16 16 16 16 16 16 16 16 15 13 12 12 12 11 12 13 13 13 12 11 11 10 10 10 9 8 9 9
3 4 3 5 5 5 4 5 6 6 7 7 4 3 5 8 5 3 6 11 9 4 2 4 7 11 12 11 12 13 15 18 22 26 27 27 28 27 26 25 26 27 27 28 28 29 28 27 26 25 25 26 27 26 25 25 25 24 23 23 24 23 22 21 19 19 18 18 17 17 17 17 17 18 18 18 18 17 16 14 14 13 12 12 13 13 13 13 12 11 11 11 11 10 10 10 9
4 5 3 2 3 5 3 5 6 6 5 3 5 4 5 7 4 3 8 13 10 3 2 4 7 10 10 10 12 12 13 18 21 23 25 26 26 25 24 25 25 25 27 29 29 29 29 28 26 26 25 26 27 27 27 27 26 25 24 25 25 25 24 22 19 18 19 19 18 19 18 18 18 19 20 20 20 19 18 17 16 15 14 13 13 14 14 13 13 12 12 12 12 12 11 11 10
6 6 3 2 2 3 2 4 5 4 4 4 6 5 5 2 1 2 10 12 5 3 5 6 7 8 9 9 11 12 11 15 20 21 24 24 22 22 25 26 26 28 30 30 30 30 29 28 27 27 26 26 27 27 28 28 28 27 26 25 25 26 26 23 21 19 19 19 19 19 19 19 19 20 21 21 21 21 20 19 18 17 16 15 15 15 15 14 14 13 13 13 13 13 12 11 11
4 6 3 4 2 1 1 3 3 3 2 5 7 7 3 1 1 4 9 7 4 6 5 5 7 8 9 8 9 13 13 17 22 21 20 20 20 24 27 27 28 31 32 31 31 31 29 29 29 27 26 26 26 26 28 29 29 29 27 26 25 25 25 24 23 22 21 20 20 20 20 20 20 21 21 22 22 21 20 20 19 18 18 17 17 17 16 16 15 15 14 14 14 14 13 12 12
3 6 3 5 3 3 1 2 2 3 2 5 7 4 2 2 1 5 6 2 5 7 6 6 7 7 9 9 9 10 13 18 21 18 18 22 26 29 30 31 33 34 34 34 33 32 30 30 29 29 27 27 27 27 28 29 30 30 29 27 26 25 25 25 25 24 23 22 21 21 22 21 21 22 22 22 22 21 21 20 19 19 19 18 18 17 17 17 16 16 15 15 15 14 14 14 13
3 6 3 6 4 4 4 2 3 4 3 5 6 2 4 4 6 7 4 2 4 5 6 6 7 7 7 9 8 8 12 16 17 19 24 29 31 31 32 35 35 35 35 35 34 33 32 31 30 30 29 28 29 28 28 29 30 30 30 29 27 26 26 26 26 25 25 24 23 23 23 23 23 24 24 23 22 22 21 21 21 20 19 18 18 18 18 18 17 17 16 15 15 15 15 15 15
3 4 3 3 1 5 5 2 1 4 4 5 6 3 6 10 10 7 5 5 5 5 7 7 7 7 7 7 7 8 10 14 18 25 30 31 31 31 33 34 33 34 33 32 33 34 34 32 31 31 31 31 30 29 29 29 29 30 30 30 29 28 28 28 27 27 26 25 25 25 25 26 26 26 26 25 24 24 24 23 23 22 20 18 18 18 19 19 19 18 17 16 15 15 16 16 17
3 2 1 2 3 5 5 2 5 6 2 2 6 4 8 10 9 7 7 7 8 8 9 8 8 7 7 7 8 9 10 16 22 27 30 31 31 30 32 32 31 33 32 32 33 34 34 33 33 32 32 33 32 32 31 30 30 30 30 31 30 30 29 30 29 29 28 27 27 27 26 27 28 28 28 28 27 27 27 26 25 23 21 19 18 18 19 20 20 19 18 17 16 16 16 17 18
2 3 3 2 4 5 6 2 9 8 2 1 5 4 8 9 8 7 6 7 9 11 11 9 9 8 8 7 8 8 9 15 20 23 27 30 30 30 31 32 31 33 33 34 34 33 34 34 34 34 34 34 34 34 33 32 32 31 31 31 31 31 31 31 30 30 30 29 29 29 28 27 28 30 31 30 30 30 29 29 27 25 22 21 20 19 20 21 21 21 20 19 19 18 18 19 20
3 5 4 3 5 5 4 3 7 7 2 2 5 5 6 6 6 5 2 6 8 9 10 9 8 8 8 7 7 7 7 10 14 20 28 30 30 32 32 33 33 34 35 35 34 34 35 34 35 35 35 35 35 35 35 34 34 33 32 31 31 32 32 32 32 31 30 30 31 31 30 28 28 30 32 33 32 32 32 30 28 26 24 23 22 21 21 22 22 22 22 21 21 21 20 21 21
4 4 4 3 5 6 3 3 5 5 3 5 8 7 8 5 4 4 2 5 8 7 10 9 8 8 7 7 6 7 8 8 11 19 28 30 31 33 33 34 33 33 34 35 35 36 36 36 36 36 36 35 35 35 35 35 35 34 34 33 33 33 33 33 32 32 32 31 32 32 31 30 29 29 31 33 34 34 33 32 29 26 25 24 24 23 23 23 23 23 23 23 23 23 23 23 23
9 7 6 2 2 6 6 4 4 7 5 7 8 8 14 11 6 7 5 6 8 9 10 8 8 8 7 7 7 8 9 10 13 20 26 28 30 32 33 34 33 33 34 34 35 35 35 35 36 36 36 36 36 35 35 35 35 35 35 35 35 35 35 35 34 34 34 33 33 32 31 31 31 30 29 32 35 36 34 33 31 29 27 26 25 25 25 25 25 25 25 25 25 25 26 25 25
12 9 6 5 4 6 6 4 4 7 6 6 8 9 15 14 9 11 9 5 6 7 7 6 7 7 7 7 7 9 10 12 17 23 26 26 28 31 33 33 32 32 33 33 34 34 35 35 35 37 37 37 36 35 35 35 35 36 35 35 36 37 37 37 37 36 36 35 34 33 32 32 32 31 30 30 32 35 35 34 33 31 30 28 28 27 27 27 27 27 27 26 26 26 28 27 27
10 8 6 6 6 6 4 3 5 4 6 6 9 11 16 13 9 12 10 3 5 9 9 8 8 7 8 8 9 10 11 13 16 22 26 26 27 29 30 31 30 30 31 32 32 34 36 37 36 37 38 37 37 37 37 37 36 36 35 36 38 37 37 37 38 38 38 37 36 35 34 33 32 32 32 31 30 31 33 34 34 33 31 30 30 30 30 29 28 28 28 28 27 27 29 28 27
9 8 7 7 7 6 5 4 3 1 4 5 7 9 15 13 10 12 7 4 8 12 12 11 11 11 9 10 11 11 10 10 11 16 22 24 25 26 28 29 29 30 32 33 34 36 37 38 38 38 38 38 39 39 38 38 38 38 37 38 37 36 36 37 38 39 39 39 38 37 36 35 34 34 33 33 32 31 31 33 34 33 32 31 31 31 31 31 31 30 29 29 28 28 29 27 26
7 6 7 6 6 2 2 2 1 2 3 4 5 6 13 13 11 12 8 8 12 13 13 13 12 12 11 11 11 10 10 9 9 12 16 21 25 26 26 28 30 32 33 34 36 36 36 37 38 38 38 38 40 40 39 40 40 40 38 36 35 35 35 36 37 37 37 38 38 38 37 37 36 35 34 34 33 32 32 32 33 34 34 33 32 32 33 32 32 32 31 30 29 27 27 27 25
5 6 6 5 5 5 3 2 1 2 2 1 2 4 9 10 7 9 10 12 13 11 11 13 11 12 13 12 10 11 12 11 11 12 13 17 21 23 26 28 30 32 33 34 34 34 35 37 38 38 39 39 39 40 41 41 39 37 36 35 33 32 33 33 34 35 36 37 37 37 38 37 36 36 35 34 34 33 33 33 33 34 35 35 35 34 34 34 34 33 32 31 29 26 26 25 24
5 6 8 5 5 7 5 2 2 1 2 1 1 5 9 9 8 11 10 10 12 10 9 12 13 12 12 11 10 11 11 11 12 13 12 12 17 22 27 30 30 31 34 35 36 37 38 39 39 40 39 39 39 40 40 39 36 34 33 31 30 29 30 29 30 34 35 35 36 37 37 37 36 36 35 35 35 34 34 34 33 34 35 36 36 36 36 36 34 33 32 31 30 28 27 25 23
6 7 9 8 8 7 5 5 4 1 4 2 1 4 7 6 8 13 9 6 9 8 9 14 15 12 10 10 12 11 11 11 12 14 12 11 16 22 26 28 29 31 36 37 38 39 39 40 39 39 39 39 39 40 39 38 37 35 33 32 31 29 28 30 34 34 33 35 36 36 36 35 35 36 36 36 36 36 36 35 34 34 35 35 36 36 37 36 35 34 33 32 31 30 28 26 25
7 6 7 8 10 8 7 7 5 2 5 2 2 6 7 6 7 11 7 7 10 8 8 15 13 9 9 10 11 11 12 12 12 13 12 11 15 17 21 27 30 34 38 38 37 38 39 39 38 39 40 40 40 39 39 38 38 37 36 37 36 33 32 35 37 35 33 35 35 34 34 34 34 34 35 36 36 36 36 36 35 35 35 35 35 36 37 36 36 35 34 33 32 30 29 27 27
6 7 11 9 10 9 8 7 4 3 2 2 1 3 5 8 8 6 5 7 11 9 11 14 10 9 10 10 12 13 13 13 11 12 12 12 14 16 21 28 33 37 37 34 35 37 38 39 39 40 40 40 40 39 39 39 40 39 39 38 37 36 38 39 35 33 34 34 33 34 33 33 33 33 34 34 34 35 35 36 36 35 35 35 35 36 36 36 35 34 33 32 31 31 30 30 29
3 7 12 9 9 7 6 6 4 1 1 3 4 2 3 9 6 1 3 7 11 12 15 15 11 10 11 12 13 14 13 12 10 12 13 13 16 22 27 29 31 34 34 33 36 38 39 39 40 39 39 40 40 39 39 40 41 41 40 38 38 39 41 39 34 32 33 33 33 34 33 32 33 32 32 32 32 33 33 34 34 34 35 35 35 36 36 35 34 33 33 32 31 31 31 31 32
1 7 10 9 7 5 5 4 3 3 2 8 7 5 5 9 8 4 1 4 12 15 15 12 9 10 11 12 13 12 11 10 11 12 13 14 19 24 27 26 27 30 33 35 36 37 37 38 38 38 39 39 39 39 40 41 41 41 40 39 40 41 40 37 33 33 33 32 33 33 32 32 32 31 31 31 31 30 30 31 32 33 34 34 35 35 35 34 34 33 33 33 33 32 32 32 32
7 8 9 8 5 4 4 2 4 2 6 9 10 11 8 8 9 9 5 7 13 14 11 8 8 9 11 10 10 10 10 10 10 10 11 14 19 20 21 23 27 30 31 32 33 35 36 36 36 38 39 39 39 39 40 40 41 41 42 42 43 43 40 35 33 35 35 33 33 32 31 31 31 31 30 29 29 29 28 29 30 31 32 33 34 34 34 34 33 33 32 33 33 32 32 31 32
7 4 5 5 2 3 3 2 3 4 8 6 9 13 10 10 8 5 6 8 11 12 11 11 10 9 10 10 10 10 10 9 8 8 9 10 13 15 17 22 27 28 28 30 33 35 35 35 36 37 38 38 38 38 39 40 41 42 43 43 43 44 41 37 37 38 36 34 34 32 30 29 29 29 28 28 29 28 28 29 29 30 30 31 32 32 33 32 32 32 32 32 32 32 32 31 31
5 4 5 5 2 1 2 1 2 6 6 2 4 10 9 13 7 2 8 8 8 10 10 11 10 10 12 11 10 9 8 8 7 7 8 8 8 10 14 20 24 26 28 31 33 34 35 36 36 37 38 38 38 38 39 40 41 42 43 43 44 43 41 39 39 39 36 34 33 31 30 29 29 28 29 29 29 29 29 29 29 30 30 30 31 30 31 30 30 30 31 32 32 32 32 32 32
8 8 7 5 4 3 5 5 2 4 3 3 1 7 5 10 5 6 13 12 10 10 10 10 9 11 11 7 7 7 6 7 7 7 8 8 8 9 13 19 22 25 29 32 33 34 35 35 36 37 38 38 39 40 40 41 42 43 43 43 44 42 40 40 40 39 36 34 33 32 32 31 30 31 31 30 30 29 28 29 29 29 29 29 29 28 28 28 28 30 31 32 33 33 33 33 33
10 7 6 5 5 5 6 6 3 3 1 2 1 4 4 5 3 6 10 9 9 8 8 8 7 9 8 4 5 7 7 7 6 7 8 9 10 11 13 17 21 24 27 29 31 32 33 34 36 38 38 37 38 40 40 41 42 42 42 42 43 42 40 39 40 39 36 34 33 33 33 32 32 32 31 30 29 28 28 28 28 28 28 27 27 27 27 27 28 30 31 31 31 30 29 29 29
5 4 5 6 5 4 2 1 2 1 1 2 3 3 4 4 6 10 7 6 7 7 7 6 8 9 6 6 8 8 8 8 7 8 9 10 11 12 14 17 20 23 25 27 29 31 33 35 36 38 38 37 38 39 40 41 42 41 41 42 42 41 40 38 38 38 36 36 35 34 34 33 33 32 31 29 28 28 28 28 28 28 28 27 27 26 26 27 27 29 29 28 28 26 25 27 29
5 5 6 4 2 6 4 2 1 4 3 4 3 6 6 4 9 12 10 8 6 7 8 7 9 8 6 9 11 8 8 8 8 8 9 10 10 11 15 17 20 22 24 26 30 32 35 36 36 37 36 35 35 37 39 40 40 40 40 41 40 40 39 39 39 38 37 36 35 34 34 33 32 31 31 30 29 29 29 28 29 29 28 27 27 27 27 27 27 28 28 29 29 28 28 30 31
7 8 7 4 3 3 2 2 2 3 5 4 2 8 6 2 7 6 9 12 9 8 9 8 9 8 8 11 9 8 9 9 8 8 9 9 8 10 14 18 21 23 25 28 31 32 34 35 36 36 35 35 36 37 38 38 39 39 39 39 40 40 40 40 39 38 36 34 34 34 34 33 33 32 31 30 29 29 29 29 29 28 27 27 27 27 28 27 27 28 29 30 30 29 30 32 32
4 7 8 6 3 3 2 3 2 3 5 5 3 6 4 7 7 0 4 11 11 11 10 8 10 9 10 10 8 9 10 9 9 8 8 8 7 10 15 18 21 23 25 27 28 29 31 32 33 33 33 34 34 35 36 36 37 37 38 39 40 40 40 39 38 37 35 35 35 35 34 34 33 32 31 30 30 30 29 29 28 27 27 27 27 28 27 26 26 27 27 28 28 28 29 30 29
1 4 5 3 3 5 5 4 3 4 5 7 6 4 5 10 8 6 7 10 10 12 10 9 12 10 9 8 8 9 9 8 9 8 8 8 8 12 16 18 19 21 23 24 23 24 27 29 29 30 30 30 30 31 33 34 35 36 37 38 38 38 38 38 37 36 36 37 36 35 34 34 33 32 32 31 30 30 29 28 28 27 27 27 28 28 27 26 26 27 28 27 27 27 26 25 26
5 8 8 6 4 2 2 4 3 4 6 7 7 7 9 7 5 10 12 11 11 12 10 11 11 8 8 8 8 9 8 9 9 7 8 8 8 11 15 16 16 16 18 19 21 22 23 25 26 27 28 27 28 29 31 33 34 35 37 37 37 37 37 37 37 36 36 37 36 35 34 34 33 32 32 31 31 30 28 28 27 27 27 27 27 27 26 27 28 30 29 27 26 26 26 26 26
13 12 13 13 11 6 5 8 4 2 5 5 5 10 11 5 5 9 11 12 13 11 9 10 8 7 8 8 8 9 8 9 8 7 8 7 7 8 10 11 12 13 15 16 18 20 21 23 24 25 26 27 29 29 31 33 34 35 36 37 37 37 37 36 36 35 36 36 35 35 34 33 33 32 31 30 30 29 27 27 27 27 27 27 27 26 25 25 26 27 27 26 25 24 25 27 26
Wind_Direction
345 343 335 333 344 2 13 48 75 322 75 90 296 174 237 205 165 182 201 224 240 265 230 123 132 137 122 157 181 183 159 157 168 138 203 253 146 159 167 168 161 163 160 156 156 156 151 153 158 151 146 139 138 144 145 137 127 125 127 131 132 129 121 122 124 114 118 122 120 118 118 120 121 121 119 114 108 103 102 103 102 102 99 95 94 93 95 94 89 85 84 87 90 89 81 79 80
344 342 337 331 2 26 315 70 90 330 55 67 272 174 250 318 146 203 199 207 199 180 132 109 98 92 70 63 129 132 126 185 166 144 222 140 145 160 169 167 162 161 158 157 156 154 154 159 163 154 144 136 134 138 139 134 132 130 128 131 135 138 125 122 122 118 123 122 120 121 124 127 123 120 116 112 108 104 102 102 102 102 99 98 97 95 98 97 93 88 87 87 88 89 86 81 80
344 344 344 332 20 46 61 42 82 57 78 215 268 237 237 160 207 215 207 211 187 151 120 103 71 63 41 6 61 113 220 245 141 104 84 146 152 166 168 162 161 160 158 158 155 155 160 165 162 155 147 139 133 131 134 134 133 133 136 137 139 144 130 125 126 128 129 125 124 120 122 127 122 120 116 113 111 108 105 104 103 101 99 99 99 98 100 98 95 92 89 88 87 88 88 84 82
343 350 351 341 41 38 65 39 125 120 123 212 281 260 207 191 217 226 229 225 178 134 98 77 47 28 51 316 223 72 237 287 160 147 149 165 162 163 161 160 162 159 156 158 157 159 166 167 162 158 151 144 138 132 135 134 131 133 137 140 142 142 134 133 132 131 132 132 127 120 126 129 125 123 119 114 112 109 106 105 100 98 100 98 100 101 101 100 98 96 94 92 90 92 92 88 85
340 356 3 37 90 41 94 69 116 105 198 192 280 264 226 206 213 222 249 238 188 142 122 109 84 244 22 192 174 134 233 342 155 156 161 171 166 160 160 162 162 157 157 159 161 166 170 166 161 160 151 145 146 136 139 139 139 141 139 142 146 141 136 138 134 132 134 136 135 134 134 126 124 121 117 114 108 103 101 102 99 98 101 97 100 104 106 107 104 103 102 99 96 99 100 94 89
341 1 29 56 99 117 118 83 114 208 228 173 165 262 232 202 197 192 234 288 249 243 191 148 169 165 43 288 181 173 212 77 153 169 168 166 166 163 162 164 161 159 161 164 167 170 169 166 161 158 151 149 152 142 142 146 145 146 146 147 146 142 139 140 137 136 137 138 140 139 133 125 125 120 115 112 102 97 95 100 102 103 105 103 105 109 114 117 117 116 111 105 102 105 104 100 94
353 344 29 56 70 36 100 160 208 240 237 170 182 254 229 197 174 152 150 252 276 297 180 211 178 121 142 295 319 204 8 138 156 175 170 162 164 163 163 165 163 164 165 168 171 170 168 166 163 160 157 154 155 147 145 150 149 148 150 147 143 146 145 144 140 138 139 143 145 141 135 134 133 126 119 111 102 96 96 104 106 111 116 114 113 112 116 120 125 125 116 109 106 104 104 104 98
16 11 360 75 47 25 87 151 229 219 225 208 220 243 221 185 149 143 173 211 194 271 170 201 187 96 201 60 135 250 352 179 189 177 169 161 163 162 164 167 168 169 168 172 172 170 170 167 166 164 160 159 157 149 150 157 155 153 154 151 149 151 148 146 142 140 139 142 147 143 139 140 137 132 125 116 111 103 106 112 111 119 124 119 120 117 117 122 125 123 117 110 106 101 102 106 101
31 33 76 76 71 29 50 320 272 239 248 265 258 242 204 159 132 137 175 254 266 208 207 205 191 355 214 94 254 276 356 189 178 171 169 164 164 161 167 172 173 172 171 174 173 171 170 169 168 164 164 163 158 153 158 161 157 158 160 160 158 156 154 153 151 148 147 148 148 143 142 144 140 135 132 130 123 116 116 118 117 128 130 118 121 120 117 121 123 125 125 119 110 106 106 108 102
38 27 114 71 85 32 350 292 278 279 257 264 263 228 170 143 130 135 167 223 262 153 229 236 100 19 157 159 259 320 354 177 158 166 171 169 167 163 170 176 176 173 174 176 173 172 171 171 168 166 172 164 158 161 165 164 161 161 163 164 161 163 164 160 156 154 155 162 156 149 152 151 148 143 141 140 134 132 131 128 130 139 137 123 123 125 122 126 131 136 138 135 127 121 117 110 103
39 359 95 76 68 81 251 251 279 274 274 291 285 231 172 135 122 133 138 192 276 119 210 273 122 144 100 298 259 349 271 173 162 169 174 172 171 168 170 174 178 176 177 178 174 175 174 174 173 173 178 167 162 171 172 170 165 162 167 170 167 166 168 165 163 165 164 168 164 158 163 160 155 150 148 148 142 146 144 138 145 153 141 125 126 133 133 136 141 144 141 139 136 129 120 109 103
92 338 67 90 151 185 204 213 276 279 309 318 243 245 165 120 119 183 169 174 223 256 229 204 184 133 89 301 258 332 176 177 174 173 175 174 174 173 172 173 179 180 179 181 179 179 180 180 180 178 182 173 170 179 184 178 169 166 173 179 179 172 170 173 172 175 173 174 176 165 166 166 160 157 156 155 148 151 150 145 152 162 145 129 133 136 137 141 143 144 141 136 136 134 125 114 107
125 129 91 123 184 158 161 182 281 312 328 273 200 227 143 127 183 199 161 158 159 168 246 210 159 94 123 263 273 311 195 184 180 173 174 174 174 175 174 174 178 180 180 184 183 184 187 187 188 185 183 181 180 187 193 189 178 175 185 189 186 180 177 182 178 178 177 176 184 177 170 169 165 168 165 159 158 155 152 153 157 167 155 140 137 137 139 144 144 145 144 141 141 141 135 129 121
141 144 121 153 104 124 155 176 282 180 260 256 211 182 154 158 195 175 143 167 201 185 247 193 150 110 161 265 298 294 198 186 181 175 173 173 176 175 176 177 179 181 182 185 186 189 193 194 199 197 190 188 190 195 197 196 187 184 195 198 189 186 185 188 182 179 182 178 183 184 178 176 173 174 170 167 172 163 158 167 173 173 162 150 141 139 142 143 145 149 151 151 148 144 139 140 138
153 140 96 120 62 99 178 220 198 157 235 233 172 158 162 219 145 142 165 179 223 221 153 137 151 172 189 178 240 269 190 182 180 175 172 173 177 178 180 180 180 182 184 187 189 193 197 199 203 204 199 194 196 199 199 197 193 191 200 204 195 191 191 192 188 185 190 186 185 187 186 186 186 185 182 183 186 179 181 193 200 187 170 161 149 143 144 145 148 152 156 156 152 148 143 144 146
134 118 74 114 180 246 199 205 120 132 244 225 187 133 150 241 127 146 208 166 197 281 76 182 174 184 179 176 242 275 180 175 175 174 172 174 177 181 183 183 184 185 186 189 191 195 199 202 204 205 203 200 200 201 202 198 195 196 202 206 198 193 192 194 192 190 195 196 193 191 193 194 194 197 197 202 202 200 212 218 214 197 184 172 157 151 151 153 154 155 158 160 157 154 152 151 152
83 100 92 145 182 214 197 186 171 165 243 244 254 165 154 236 291 170 192 102 129 235 311 248 239 216 189 211 317 174 168 169 171 172 172 173 176 179 184 186 187 188 191 192 193 196 198 202 206 207 207 205 205 204 204 200 196 198 202 204 197 194 195 196 197 195 197 203 204 198 197 198 199 202 203 210 213 216 226 225 219 209 197 180 166 161 161 161 162 162 164 166 167 166 166 163 162
84 105 138 186 185 200 186 184 197 174 211 218 218 188 168 196 214 175 114 65 88 88 299 297 296 270 237 270 322 155 163 165 169 170 172 176 177 179 185 189 189 192 194 195 197 198 199 202 206 210 211 210 209 208 207 202 199 201 203 202 195 196 199 200 202 201 201 205 211 210 207 207 206 208 210 215 218 220 225 225 226 222 209 189 176 172 170 170 171 172 176 178 179 182 184 183 187
107 120 162 211 191 200 191 176 189 196 202 194 203 189 184 193 170 158 187 233 109 160 265 324 312 279 283 285 153 157 162 164 170 172 174 180 185 184 186 191 193 195 196 197 199 200 202 204 206 211 214 213 211 210 209 204 202 203 206 204 198 199 201 203 206 208 210 211 216 219 217 217 216 216 219 222 221 223 224 224 227 227 223 204 188 183 182 180 181 184 188 190 190 194 199 205 219
156 132 177 233 203 213 208 178 194 214 187 158 191 178 193 204 158 158 184 190 169 196 222 227 256 249 258 211 154 158 162 165 172 176 179 185 191 192 192 194 196 197 198 200 201 202 204 205 208 212 215 215 213 212 211 207 204 205 208 209 204 204 206 209 214 216 219 220 222 223 223 222 222 223 225 226 224 226 227 228 228 225 224 214 200 194 193 191 192 195 195 196 198 205 214 227 240
162 147 191 224 183 209 222 193 205 214 177 159 163 142 188 212 153 164 154 147 240 237 221 201 215 215 197 191 167 165 166 170 177 182 186 189 192 197 199 200 201 201 200 203 205 205 206 208 210 213 215 216 214 213 212 209 207 208 210 211 211 211 213 216 220 222 224 224 225 225 224 223 223 225 226 227 227 229 232 234 231 224 218 213 206 203 202 202 201 201 202 203 207 216 228 239 247
155 205 204 191 147 193 231 193 185 167 131 130 142 158 186 165 141 174 159 173 231 229 214 206 209 192 175 179 174 171 174 177 183 189 193 195 197 200 202 203 203 204 205 207 209 209 209 211 213 215 216 215 214 215 215 212 210 211 212 213 214 215 218 222 225 226 225 224 224 223 223 223 224 225 227 229 231 232 234 234 229 222 217 213 211 211 211 209 208 208 208 211 217 228 238 246 251
191 238 231 209 165 177 214 171 168 138 123 153 174 186 151 135 179 189 173 204 220 201 202 208 206 182 170 168 167 173 182 186 191 196 198 200 202 203 203 204 205 207 209 212 213 212 213 214 216 218 217 214 213 215 218 215 214 215 215 215 217 218 221 225 226 225 224 223 223 223 225 226 226 227 229 230 232 234 234 231 227 223 220 217 218 219 219 217 214 213 215 219 226 235 244 250 255
220 227 233 219 184 185 186 142 159 150 157 193 179 137 146 169 190 149 196 230 224 202 211 195 177 162 160 161 171 184 189 193 199 201 202 204 206 207 206 207 209 211 213 216 217 217 217 218 219 220 220 217 213 214 217 216 216 217 218 219 219 220 223 227 226 225 224 224 225 226 229 231 232 231 232 232 233 235 233 231 228 227 225 223 224 224 223 222 219 218 221 225 233 241 247 253 257
228 217 222 193 194 217 187 127 153 164 178 183 130 157 201 195 171 137 218 241 235 206 88 125 141 148 164 175 182 191 193 200 205 206 209 211 211 211 212 213 213 214 218 220 220 221 221 221 222 222 222 219 215 213 213 215 217 218 220 221 221 221 225 227 227 226 226 227 228 228 230 232 235 234 234 234 234 234 233 232 232 231 231 230 231 228 226 225 225 226 228 232 239 245 250 254 257
221 199 183 173 226 247 189 166 176 172 186 143 143 212 260 245 187 205 232 241 225 134 102 123 138 156 181 186 188 192 196 203 206 207 211 213 213 213 216 216 215 218 222 223 223 225 224 223 224 225 224 220 216 214 213 215 217 219 222 223 223 223 224 227 229 229 229 230 230 230 231 234 237 238 236 234 234 234 233 234 234 234 234 234 233 231 228 228 229 231 235 238 244 249 254 255 256
196 173 173 205 234 354 170 218 203 158 212 174 174 224 268 357 265 237 248 241 150 128 135 148 157 178 192 194 198 196 201 206 205 205 209 212 213 216 218 217 218 222 224 225 226 227 227 225 226 227 226 223 219 218 216 216 218 221 223 225 225 225 225 228 231 232 232 233 233 233 234 236 239 239 236 233 233 233 233 234 234 234 234 234 234 232 230 231 233 236 239 244 248 253 256 256 256
142 153 177 248 286 350 236 242 219 161 227 186 167 232 269 53 204 225 257 239 152 160 170 175 182 196 200 199 203 201 209 212 205 202 204 209 212 215 217 217 218 222 224 225 227 229 228 227 227 227 226 224 222 222 221 219 219 222 225 227 227 227 228 230 232 234 235 236 236 236 236 237 238 238 234 231 231 231 230 231 231 232 233 233 235 234 233 235 236 240 244 247 251 255 256 256 256
115 130 153 256 294 305 238 214 229 180 200 174 140 303 267 226 222 206 214 155 150 179 188 199 204 206 207 206 208 208 214 211 204 208 212 214 215 215 217 220 219 221 224 226 228 229 229 230 229 228 227 225 224 224 225 224 223 224 226 229 229 229 230 232 234 235 236 238 239 239 238 236 237 236 232 229 228 227 227 228 230 231 232 234 237 238 239 240 241 243 247 250 253 257 259 258 258
134 125 139 240 292 279 238 169 175 175 194 174 152 254 244 232 234 204 187 156 144 198 216 216 216 215 214 209 213 219 215 206 206 214 217 218 219 218 220 222 221 223 225 226 227 229 230 231 230 229 227 226 225 225 227 228 227 227 228 230 231 232 231 233 235 236 239 240 241 241 240 237 235 234 232 229 227 227 227 229 231 232 232 235 239 242 245 247 247 248 251 253 256 261 262 261 259
149 147 177 191 181 259 269 160 151 170 223 161 156 229 247 241 246 225 208 178 170 213 229 223 221 221 218 212 215 224 217 213 216 218 219 222 222 221 223 224 223 224 226 226 228 229 230 231 230 229 228 227 227 226 228 230 230 231 231 232 233 233 233 234 235 237 239 240 242 242 242 240 236 233 232 232 230 229 231 233 234 234 234 238 242 245 249 252 253 253 256 258 260 263 264 263 260
150 191 208 184 193 256 297 227 170 180 247 124 154 214 259 258 250 237 220 188 190 218 227 225 224 222 223 223 220 226 229 226 228 228 226 226 225 225 225 225 224 224 225 227 228 229 230 230 230 229 228 228 228 228 229 231 233 234 234 235 235 236 236 236 237 237 239 241 242 243 243 242 238 235 233 234 235 234 235 237 238 239 238 241 244 248 252 255 258 258 260 260 262 263 264 265 263
222 205 197 169 186 220 286 269 205 195 146 197 212 225 257 269 243 242 238 187 195 223 237 235 231 232 229 229 230 230 239 238 236 234 232 230 228 227 227 227 227 226 227 227 227 228 228 229 229 229 229 229 229 229 229 230 232 235 236 237 237 238 238 239 239 239 240 241 243 244 244 243 240 238 236 235 237 239 240 241 243 244 244 245 248 251 255 258 261 262 262 262 262 263 264 266 265
207 198 203 194 183 190 224 275 245 211 170 204 222 235 242 243 222 247 274 181 184 218 241 243 234 235 232 228 236 235 236 240 237 234 233 231 229 229 229 229 229 228 229 229 228 229 230 229 229 230 230 230 230 230 230 230 232 235 237 238 239 240 241 242 243 242 242 243 244 245 244 243 242 241 240 238 238 240 242 244 246 248 249 250 251 254 258 260 262 262 262 263 263 263 264 266 268
191 190 193 186 180 196 201 222 216 186 196 214 203 232 246 242 238 255 253 171 179 216 231 242 239 234 235 228 229 232 233 239 241 238 236 234 232 231 231 231 230 230 230 230 230 230 230 230 230 231 230 229 230 231 231 231 231 233 235 236 238 240 241 242 243 244 244 244 244 245 245 244 243 242 243 242 241 241 242 245 247 249 251 253 254 256 258 259 260 260 262 264 265 265 265 266 269
188 184 173 161 183 220 213 233 237 174 179 223 202 223 245 241 240 252 251 177 187 236 240 248 248 239 239 232 230 231 230 236 240 241 241 237 234 233 232 232 231 231 231 230 230 229 228 229 229 230 230 229 228 228 228 228 227 228 230 232 234 236 238 241 242 244 245 245 246 246 245 244 243 243 244 244 245 244 243 244 246 249 252 254 255 256 258 259 260 261 263 266 268 267 267 266 267
159 156 169 174 191 234 231 237 274 181 173 229 215 226 247 244 240 248 248 192 219 251 246 240 240 239 237 231 232 230 230 238 242 242 242 239 236 235 233 232 231 231 231 229 228 228 228 228 227 228 229 227 226 224 224 223 222 223 224 227 231 233 235 238 241 243 244 245 246 246 246 246 245 245 245 245 247 247 246 247 247 249 252 254 256 257 260 261 262 263 264 266 267 267 267 267 267
144 161 179 186 197 225 220 207 280 186 179 247 228 233 255 252 246 250 240 200 241 247 241 238 234 236 236 232 234 232 236 244 245 245 243 239 236 235 232 230 229 228 229 228 227 228 228 227 226 227 228 226 225 225 223 223 223 224 225 227 230 232 235 238 240 243 244 245 246 246 247 248 248 247 246 245 246 249 250 250 250 250 252 254 256 258 259 260 260 261 261 261 262 264 265 267 266
152 164 171 189 194 198 254 224 355 163 183 260 243 232 258 256 247 251 235 218 242 239 233 237 231 234 236 231 234 234 240 244 242 245 241 236 233 232 229 228 228 228 229 229 228 228 227 226 226 227 227 226 226 225 223 225 227 228 228 231 233 235 238 242 245 247 247 247 247 247 248 249 249 248 247 246 246 248 251 253 253 252 253 254 256 257 257 257 258 258 258 258 260 260 262 263 261
174 166 170 187 162 159 234 252 93 199 193 231 260 263 268 266 258 256 236 225 244 239 230 240 234 232 235 230 230 228 232 236 240 245 240 233 230 227 225 225 226 227 228 228 227 226 226 226 226 226 226 227 226 226 226 227 228 229 230 233 236 239 242 245 246 247 247 247 248 248 249 249 249 249 248 248 248 249 251 253 254 253 252 253 255 256 256 256 257 257 257 257 256 255 257 259 259
204 193 195 183 146 173 201 152 120 315 309 120 344 303 273 257 248 254 241 220 244 242 227 245 242 234 235 236 236 229 227 228 232 241 238 227 224 223 223 224 224 223 225 227 225 225 226 227 227 226 226 226 226 227 228 226 225 226 227 229 232 236 240 241 241 243 242 243 246 247 248 249 249 249 249 250 250 251 252 253 253 253 252 252 253 254 255 256 257 258 258 258 255 252 253 258 259
217 217 205 175 150 163 144 126 121 47 280 234 143 273 271 260 236 245 243 207 234 233 216 238 241 232 229 233 238 233 230 230 227 236 236 224 222 223 224 223 221 221 226 227 226 227 227 227 227 226 226 226 226 227 227 224 222 222 221 220 223 226 230 233 235 237 238 240 244 246 248 249 249 249 250 250 251 252 253 253 254 253 253 252 252 253 254 255 256 257 257 257 255 254 254 255 256
219 198 170 155 150 151 140 144 144 183 253 274 166 227 268 290 246 239 233 216 238 235 223 240 240 231 226 224 234 232 230 232 229 236 238 230 223 220 223 223 220 223 228 228 227 227 227 227 227 226 226 226 226 226 225 222 220 219 220 221 223 223 227 233 236 237 240 243 246 247 248 249 249 249 249 249 250 251 252 253 253 254 253 253 253 253 254 254 255 256 257 256 256 257 253 249 252
212 151 135 139 144 151 153 156 180 216 261 326 186 209 271 275 255 231 195 213 249 251 243 246 238 231 232 225 231 231 230 230 228 233 236 234 226 219 222 224 223 227 229 227 225 226 227 227 227 226 226 226 225 224 222 221 219 219 220 222 224 226 230 236 238 239 242 244 246 247 248 249 250 250 250 250 250 250 251 252 253 253 253 253 253 253 254 254 255 255 255 255 255 254 250 248 250
235 133 130 127 126 137 139 144 185 265 360 247 211 141 257 260 259 203 159 210 247 250 243 243 233 227 232 230 232 232 233 232 226 230 233 232 227 224 226 228 228 230 229 227 227 227 228 227 226 225 224 224 224 223 221 221 220 220 220 220 224 228 233 237 238 240 243 243 244 246 246 248 249 250 250 250 250 251 252 253 253 253 253 254 254 254 255 255 254 254 253 253 252 252 251 249 249
180 116 106 94 95 98 97 124 143 76 277 236 207 169 228 264 253 223 171 213 236 244 242 239 227 223 227 230 234 233 234 233 228 230 233 234 232 231 232 232 233 233 231 230 228 227 226 225 224 222 223 223 222 222 221 221 220 219 219 220 223 228 232 234 235 238 240 241 242 243 243 244 246 247 248 249 250 251 252 253 253 254 255 255 255 255 255 254 254 254 254 254 254 252 251 249 249
125 110 93 80 63 65 73 66 95 99 257 233 194 181 205 270 251 214 205 204 219 236 248 246 228 225 230 230 232 230 229 231 229 231 238 242 242 241 238 235 235 235 233 230 227 226 225 223 222 221 223 222 221 220 219 220 220 218 219 221 224 228 230 229 231 234 235 236 238 239 240 242 243 245 247 248 250 251 252 253 254 255 255 255 255 255 255 255 255 255 255 255 254 252 250 249 249
126 104 125 126 64 44 61 30 88 205 249 229 183 171 186 243 243 201 223 218 217 228 236 238 228 224 233 228 226 226 225 230 228 228 238 243 245 242 235 233 235 234 230 227 226 225 223 221 220 221 222 221 220 219 219 219 219 219 220 222 225 229 229 227 229 233 232 232 234 236 237 239 240 242 244 245 247 248 250 252 252 253 253 253 254 255 256 256 256 256 255 254 252 251 250 249 249
128 95 144 156 141 125 160 172 184 224 251 298 167 155 188 241 247 255 257 243 230 229 231 234 222 220 231 225 224 229 225 227 225 226 235 236 236 233 227 230 232 229 226 225 225 222 220 220 219 219 221 220 219 218 219 219 219 220 221 223 226 229 229 228 231 234 234 233 234 234 234 236 236 237 239 241 245 247 248 250 250 251 252 253 254 254 255 256 256 255 254 253 252 251 251 250 249
164 153 162 173 160 168 195 193 211 235 241 347 147 154 221 262 268 251 246 240 233 228 229 231 217 223 233 219 219 238 239 231 227 231 237 237 234 229 226 229 231 229 226 224 223 220 219 218 217 218 220 220 218 218 218 218 220 222 223 224 226 228 228 229 231 234 235 234 235 236 236 237 236 238 239 242 246 248 249 250 252 253 253 253 253 253 254 255 255 255 254 253 251 251 249 247 246
183 166 154 189 188 186 201 194 220 237 219 337 211 168 208 230 269 267 247 251 255 242 237 241 241 244 250 248 236 242 247 240 232 232 235 237 237 234 232 233 233 232 228 225 222 219 217 217 217 218 219 218 217 217 217 218 221 222 223 225 227 228 229 230 232 234 235 235 237 238 239 239 240 242 244 247 249 249 251 252 252 253 253 252 251 252 254 254 254 253 252 250 249 248 248 247 248
189 140 151 212 203 151 125 183 215 150 131 268 215 225 231 211 278 287 268 274 279 266 263 260 258 257 260 267 252 238 239 239 232 233 237 240 240 238 236 235 235 233 230 225 221 217 216 216 217 218 220 219 217 217 217 219 221 222 223 225 227 228 229 230 232 235 235 237 238 239 241 242 244 246 247 249 249 250 252 252 251 253 252 251 251 251 252 252 252 252 251 252 252 253 253 254 254
169 173 185 204 127 110 117 236 348 60 237 244 175 244 281 316 283 265 241 251 268 266 266 250 247 252 251 255 253 246 244 240 232 232 238 241 240 239 237 236 234 230 227 224 221 219 218 217 217 218 219 218 217 218 218 219 220 222 223 225 226 228 229 230 232 234 236 237 238 240 242 244 246 248 249 249 250 251 252 252 252 252 252 251 252 252 252 252 252 252 252 253 254 255 255 255 254
158 188 181 125 68 82 118 219 17 53 252 266 189 235 260 285 268 249 216 233 246 251 251 244 248 249 241 247 253 253 251 248 245 238 241 245 242 240 238 236 233 228 226 225 223 222 220 219 219 218 218 218 218 219 220 220 221 221 223 225 227 228 230 232 233 234 236 236 238 240 241 244 247 248 249 250 250 251 251 251 251 251 251 252 252 252 253 254 254 253 252 252 253 254 254 253 253
169 178 164 135 166 214 165 187 202 193 244 273 235 233 241 221 230 227 212 229 233 241 244 238 241 236 235 247 251 250 251 254 254 244 238 240 237 236 234 235 234 229 228 227 225 223 220 220 221 220 221 221 221 221 221 221 222 223 225 227 228 230 231 232 234 234 235 237 239 240 242 245 247 248 248 249 250 250 250 250 249 250 251 251 251 252 252 254 255 255 253 252 254 256 253 251 252
44 134 150 147 188 199 187 187 187 181 225 261 248 225 240 228 198 161 214 227 223 235 244 244 243 235 233 243 245 248 248 246 250 247 238 232 229 231 230 232 232 228 228 227 225 223 221 221 221 221 223 223 222 222 222 223 223 224 227 229 230 231 231 233 234 235 235 237 239 241 243 246 247 248 248 249 250 251 250 250 251 252 251 251 251 251 251 252 253 253 253 254 256 256 254 255 259
166 165 175 189 191 171 197 205 176 164 206 241 253 248 250 242 174 177 206 219 214 216 225 238 247 245 237 238 240 245 246 243 244 245 242 235 232 235 234 235 233 228 228 226 224 224 223 222 222 221 222 222 222 223 223 225 226 227 228 229 230 231 233 234 235 235 236 239 241 242 244 246 247 248 249 249 250 251 251 252 252 253 252 252 252 251 252 253 252 251 252 254 255 255 255 257 261
179 186 186 189 189 168 190 211 196 172 212 203 229 259 260 232 182 190 200 216 221 211 215 237 245 243 242 241 237 240 246 249 244 241 245 242 239 240 236 232 227 222 222 221 220 221 221 222 223 223 223 223 224 224 225 227 228 228 229 230 231 232 234 234 234 235 237 240 242 243 244 244 246 248 249 249 251 251 252 253 253 253 253 253 252 252 253 253 253 254 253 253 253 255 258 259 261